Regional Weather Roundup
Issued by NWS

Home | Current Version | Previous Version | Graphics & Text | Print | Product List | Glossary On
Versions: 1 2 3 4 5 6 7 8 9 10 11 12 13 14 15 16 17 18 19 20 21 22 23 24 25 26 27 28 29 30 31 32 33 34 35 36 37 38 39 40 41 42 43 44 45 46 47 48 49 50
000
ASUS43 KDTX 301310
RWRMI
MICHIGAN HOURLY REGIONAL WEATHER ROUNDUP
NATIONAL WEATHER SERVICE DETROIT/PONTIAC MI
900 AM EDT TUE JUN 30 2015

NOTE: "FAIR" INDICATES FEW OR NO CLOUDS BELOW 12,000 FEET WITH NO
SIGNIFICANT WEATHER AND/OR OBSTRUCTION TO VISIBILITY.

MIZ047>049-052>055-059>063-066>070-074>076-081>083-301400-
SOUTHEAST LOWER MICHIGAN

CITY           SKY/WX    TMP DP  RH WIND       PRES   REMARKS
ADRIAN         MOSUNNY   65  60  84 SW6       29.83S
ALMA           PTSUNNY   65  61  85 CALM      29.83S
ANN ARBOR      CLOUDY    63  61  93 W3        29.82S
BAD AXE        CLOUDY    62  58  87 CALM      29.84S
CARO           CLOUDY    60  58  94 CALM      29.83R
DETROIT CITY   CLOUDY    64  59  83 CALM      29.82R
DETROIT        LGT RAIN  64  61  90 CALM      29.82S FOG
FLINT          CLOUDY    66  60  81 CALM      29.82F
GROSSE ILE     LGT RAIN  63  61  94 CALM      29.81R
HILLSDALE      CLOUDY    63  62  97 CALM      29.84R
HOWELL         DRIZZLE   62  61  96 SW5       29.83S

CITY           SKY/WX    TMP DP  RH WIND       PRES   REMARKS
JACKSON        PTSUNNY   67  57  70 W3        29.82S
LAMBERTVILLE   MOSUNNY   68  60  76 W5        29.84R
LANSING        PTSUNNY   66  57  72 SE5       29.82S
LAPEER         CLOUDY    63  58  84 CALM      29.83S
MASON          CLOUDY    62  59  90 CALM      29.83R
MONROE         CLOUDY    65  62  89 W3        29.81S
MT. CLEMENS    CLOUDY    64  61  90 E5        29.80S
PONTIAC        CLOUDY    65  60  84 CALM      29.81S
PORT HOPE        N/A     62  59  90 E7        29.83R
PORT HURON     CLOUDY    63  61  94 CALM      29.83S
TRI CITIES     CLOUDY    65  58  78 CALM      29.83S
MIDLAND        CLOUDY    61  59  92 CALM      29.82S
TROY           CLOUDY    65  61  84 CALM      29.83S
SAGINAW HB     CLOUDY    64  59  82 CALM      29.82S
$$
MIZ043>046-050>051-056>058-064>065-071>073-077>080-301400-
SOUTHWEST LOWER MICHIGAN

CITY           SKY/WX    TMP DP  RH WIND       PRES   REMARKS
BATTLE CREEK   CLOUDY    65  59  81 SE7       29.82S
BENTON HARBOR  CLOUDY    65  62  90 S6        29.79F FOG
BIG RAPIDS     LGT RAIN  61  57  87 SE5       29.79F
COLDWATER      CLOUDY    63  60  89 S3        29.82S
FREMONT        RAIN      60  59  97 E6        29.79S
HOLLAND        CLOUDY    63  60  90 SE6       29.80S FOG
GRAND RAPIDS   LGT RAIN  62  59  90 SE6       29.81S
IONIA          FAIR      64  61  91 S3        29.81S
KALAMAZOO      CLOUDY    64  60  87 S5        29.82S
LUDINGTON      CLOUDY    62  59  90 E6        29.78S
MARSHALL       CLOUDY    64  60  86 CALM      29.82S
MOUNT PLEASANT CLOUDY    61  59  93 E3        29.82S
MUSKEGON       LGT RAIN  63  60  90 CALM      29.79R FOG
SOUTH HAVEN    CLOUDY    63  61  94 S3        29.79S FOG
$$
MIZ016>042-301400-
NORTHERN LOWER MICHIGAN

CITY           SKY/WX    TMP DP  RH WIND       PRES   REMARKS
ALPENA         MOSUNNY   68  58  70 CALM      29.83R
BEAVER ISLAND  DRIZZLE   60  60  97 W3        29.81R
BELLAIRE       CLOUDY    65  58  77 CALM      29.80S
CADILLAC       CLOUDY    60  58  92 E5        29.81S
CHARLEVOIX     CLOUDY    65  60  83 SE3       29.83S HAZE
FRANKFORT      CLOUDY    65  58  78 E3        29.80R
GAYLORD        CLOUDY    64  60  87 W5        29.83S
GRAYLING       CLOUDY    60  57  88 CALM      29.84R
HARBOR SPRINGS PTSUNNY   67  59  74 CALM      29.81S
HOUGHTON LAKE  PTSUNNY   64  59  83 VRB5      29.83S
MANISTEE       PTSUNNY   61  55  82 E5        29.80R
OSCODA         MOSUNNY   69  57  66 W3        29.83R
PELLSTON       PTSUNNY   68  58  70 CALM      29.81S
ROGERS CITY    PTSUNNY   68  59  74 CALM      29.83R
TRAVERSE CITY  LGT RAIN  63  59  87 CALM      29.79R
$$
MIZ007>008-015-301400-
EASTERN UPPER MICHIGAN

CITY           SKY/WX    TMP DP  RH WIND       PRES   REMARKS
KINROSS        CLOUDY    66  61  82 S6        29.82R
MACKINAC ISLAN PTSUNNY   65  59  79 CALM      29.81S
NEWBERRY       LGT RAIN  60  60  99 CALM      29.81R
S. S. MARIE    PTSUNNY   65  58  78 CALM      29.81S
MUNISING         N/A     47  43  86 NW8G16    29.84S
$$
MIZ004>006-011>014-085-301400-
CENTRAL UPPER MICHIGAN

CITY           SKY/WX    TMP DP  RH WIND       PRES   REMARKS
MANISTIQUE     CLOUDY    55  54  96 NW8       29.82R
ESCANABA       CLOUDY    54  50  87 N10G16    29.83R
MENOMINEE      CLOUDY    61  57  88 N7        29.81R
SAWYER-GWINN   DRIZZLE   46  45  93 N12G17    29.86R
$$
MIZ001>003-009>011-084-301400-
WESTERN UPPER MICHIGAN

CITY           SKY/WX    TMP DP  RH WIND       PRES   REMARKS
IRON MOUNTAIN  CLOUDY    54  49  83 NW13      29.85S
HOUGHTON       CLOUDY    49  44  83 N7        29.92R
COPPER HARBOR    N/A     45  42  89 NE10      29.93R
IRONWOOD       CLOUDY    50  50 100 NE9       29.93R
$$

ABBREVIATIONS USED IN REMARKS
   TC - TEMPERATURE IN CELSIUS
  WCI - WIND CHILL INDEX
   HX - HEAT INDEX
  VSB - VISIBILITY



USA.gov is the U.S. government's official web portal to all federal, state and local government web resources and services.